Location: Elkol
(41.7238°N, 110.6124°W)
Time: 21:23:29
(UTC+00:00)

Envisat - Visible Passes

Search period start: 30 March 2023 00:00
Search period end: 09 April 2023 00:00
Orbit: 763 x 765 km, 98.2° (Epoch: 30 March)

Date Brightness Start Highest point End Pass type
(mag) Time Alt. Az. Time Alt. Az. Time Alt. Az.
30 Mar 5.9 09:53:00 10° E 09:53:24 10° E 09:53:47 10° E visible
30 Mar 2.9 11:27:57 10° NNE 11:33:03 89° WNW 11:37:36 13° SSW visible
31 Mar 4.1 10:51:06 10° NNE 10:55:53 41° E 11:00:13 12° SSE visible
31 Mar 4.1 12:30:35 10° NNW 12:34:38 25° WNW 12:38:41 10° WSW visible
01 Apr 5.4 10:15:01 10° NE 10:18:31 18° E 10:21:59 10° SE visible
01 Apr 3.2 11:52:52 10° N 11:57:48 52° WNW 12:02:42 10° SSW visible
02 Apr 3.2 11:15:41 10° NNE 11:20:46 71° ESE 11:25:36 11° S visible
03 Apr 4.6 10:39:02 10° NNE 10:43:32 31° E 10:48:01 10° SSE visible
03 Apr 3.8 12:18:01 10° N 12:22:27 31° WNW 12:26:52 10° SW visible
04 Apr 5.6 10:03:27 10° ENE 10:06:06 14° E 10:08:43 10° ESE visible
04 Apr 3.0 11:40:30 10° N 11:45:33 68° WNW 11:50:35 10° SSW visible
05 Apr 3.6 11:03:28 10° NNE 11:08:28 54° E 11:13:25 10° S visible
06 Apr 5.0 10:27:02 10° NE 10:31:09 24° E 10:35:15 10° SSE visible
06 Apr 3.5 12:05:32 10° N 12:10:14 40° WNW 12:14:56 10° SW visible
07 Apr 5.9 09:52:45 10° ENE 09:53:38 10° E 09:54:32 10° E visible
07 Apr 2.9 11:28:10 10° NNE 11:33:17 87° WNW 11:38:21 10° SSW visible
08 Apr 4.1 10:51:18 10° NNE 10:56:06 42° E 11:00:53 10° SSE visible
